Location: Hurstbourne Priors
(51.2000°N, 1.3667°W)
Time: 22:48:20
(UTC+00:00)

Altair - Pass Details

Date: 15 April 2021
Orbit: 1501 x 1683 km, 47.2° (Epoch: 13 May)

Event Time Altitude Azimuth Distance (km) Brightness Sun altitude
Rises 13:14:54 0° 286° (WNW) 4,719 10.1 46.4°
Reaches altitude 10° 13:18:18 10° 278° (W) 3,711 9.8 46.2°
Maximum altitude 13:26:23 35° 218° (SW) 2,259 10.6 45.6°
Drops below altitude 10° 13:34:20 10° 157° (SSE) 3,643 10.0 44.9°
Sets 13:37:39 0° 149° (SSE) 4,623 10.3 44.7°
